sat.trackr.live / text

‹ back to catalog

GAOFEN-13 01

NORAD 46610 · 2020-071A

PAYLOAD ACTIVE UNKNOWN

§ Identity

Operator
Country
PRC
Launch date
2020-10-11
Launch site
XICLF
Launch vehicle
Mass (kg)
RCS (m²)

Purposes: comms

External: N2YO · Heavens-Above · Gunter

§ Orbital elements

Epoch: 2026-05-24T23:10:23.521728Z

Period
1,436.10 min
Inclination
0.4633°
Eccentricity
0.0041630
Mean motion
1.00271568 rev/d
Perigee alt
35,611.1 km
Apogee alt
35,962.2 km
Semi-major
42,164.8 km
B*
0.0000e+0
RAAN
84.9856°
Arg perigee
123.1174°
Mean anomaly
140.2942°
Rev number
2,068

§ Raw data

GAOFEN-13 011 46610U 20071A   26144.96555002 -.00000365  00000+0  00000+0 0  99992 46610   0.4633  84.9856 0041630 123.1174 140.2942  1.00271568 20686

JSON: /api/v1/satellites/46610 · /tle

For live sub-satellite position, see the globe view (requires WebGL).

§ Visibility from observer

Set your observer location to see the next 7 days of passes ≥ 10°. The values pass through the URL so the page stays shareable.

No JS? Fill the form by hand. The geolocation button needs JavaScript.